CW8332 Weather Reports


time (UTC)temp
C
wind
direction
speed
KPH
gust
KPH
rain 1hr
cm
rain 24hr
cm
rain mn
cm
humidity
%
barometer
mb
20260506153231 10 286 4.8 11.3 0.03 1.45 0.53 79 1010.5
20260506151743 10 287 4.8 11.3 0.03 1.42 0.51 78 1010.1
20260506150224 10 297 3.2 12.9 0.03 1.42 0.51 79 1010.2
20260506144728 11 290 4.8 11.3 0.05 1.42 0.51 79 1009.6
20260506143219 11 286 8.0 14.5 0.05 1.42 0.51 78 1009.5
20260506141713 10 235 3.2 9.7 0.03 1.40 0.48 80 1009.2
20260506140259 10 247 0.0 6.4 0.05 1.40 0.48 83 1009.1
20260506134725 10 255 1.6 6.4 0.03 1.37 0.46 87 1009.2
20260506133215 8 288 4.8 12.9 0.05 1.37 0.46 90 1009.1
20260506131729 8 234 3.2 8.0 0.05 1.37 0.46 91 1008.9
20260506130236 8 285 0.0 4.8 0.03 1.35 0.43 91 1008.5
20260506124714 8 291 1.6 6.4 0.05 1.35 0.43 91 1008.3
20260506123226 8 49 0.0 3.2 0.03 1.32 0.41 91 1008.3
20260506121718 8 61 0.0 1.6 0.03 1.32 0.41 91 1008.3
20260506120224 8 61 0.0 0.0 0.05 1.32 0.41 91 1008.2
20260506114748 8 61 0.0 0.0 0.03 1.30 0.38 91 1008.2
20260506113216 8 61 0.0 0.0 0.03 1.30 0.38 91 1007.8
20260506111729 8 61 0.0 1.6 0.03 1.27 0.36 91 1007.7
20260506110234 8 61 0.0 0.0 0.03 1.27 0.36 91 1007.3
20260506104714 8 56 0.0 4.8 0.05 1.27 0.36 91 1007.1
20260506103250 8 35 0.0 0.0 0.05 1.27 0.36 91 1007.3
20260506101740 8 36 0.0 1.6 0.05 1.24 0.33 91 1006.9
20260506100228 8 36 0.0 4.8 0.05 1.24 0.33 91 1006.5
20260506094728 8 269 0.0 0.0 0.05 1.22 0.30 91 1007.0
20260506093219 8 269 3.2 6.4 0.05 1.22 0.30 91 1007.5
20260506091732 8 296 1.6 6.4 0.03 1.19 0.28 91 1007.5
20260506090238 8 280 1.6 3.2 0.05 1.19 0.28 91 1007.1
20260506084717 8 57 0.0 1.6 0.03 1.17 0.25 91 1006.8
20260506083228 8 57 0.0 1.6 0.05 1.17 0.25 91 1006.8
20260506081723 8 57 0.0 1.6 0.05 1.17 0.25 91 1007.2
20260506080224 8 57 0.0 0.0 0.05 1.14 0.23 91 1007.3
20260506073217 8 57 0.0 0.0 0.05 1.12 0.20 91 1006.9
20260506071713 8 57 0.0 1.6 0.05 1.12 0.20 91 1006.9
20260506070257 8 57 0.0 0.0 0.05 1.09 0.18 91 1007.0
20260506061721 8 57 0.0 0.0 0.05 1.07 0.15 91 1007.0
20260506060244 8 57 0.0 0.0 0.05 1.04 0.13 91 1007.2
20260506050235 8 284 0.0 0.0 0.08 0.99 0.08 91 1007.5
20260506044736 8 284 0.0 0.0 0.05 0.97 0.05 91 1007.6
20260506043227 8 284 0.0 0.0 0.08 0.97 0.05 91 1007.7
20260506041722 8 284 0.0 0.0 0.05 0.94 0.03 91 1007.8
20260506040224 8 284 0.0 0.0 0.05 0.91 0.00 91 1008.0
20260506034725 9 284 0.0 4.8 0.08 0.91 0.91 91 1008.2
20260506033220 10 58 1.6 3.2 0.05 0.89 0.89 91 1008.2
20260506031754 10 61 0.0 0.0 0.08 0.89 0.89 92 1008.1
20260506030233 10 61 0.0 3.2 0.08 0.86 0.86 91 1008.3
20260506024713 10 61 0.0 0.0 0.05 0.84 0.84 91 1008.0
20260506023231 10 61 0.0 0.0 0.05 0.81 0.81 91 1007.8
20260506021721 10 61 0.0 0.0 0.08 0.81 0.81 91 1007.8
20260506020245 10 61 0.0 0.0 0.08 0.79 0.79 91 1007.7
20260506014724 10 61 0.0 0.0 0.08 0.79 0.79 91 1007.7
20260506013220 10 61 0.0 0.0 0.08 0.76 0.76 91 1007.7
20260506011733 10 61 0.0 0.0 0.08 0.74 0.74 91 1007.5
20260506010256 10 61 0.0 6.4 0.05 0.71 0.71 91 1007.4
20260506004715 10 50 0.0 3.2 0.10 0.71 0.71 91 1007.6
20260506003229 10 50 0.0 0.0 0.08 0.69 0.69 90 1007.3
20260506001744 10 50 0.0 0.0 0.08 0.66 0.66 90 1007.3
20260506000227 10 50 0.0 0.0 0.10 0.66 0.66 90 1007.1
20260505234725 10 50 0.0 3.2 0.10 0.61 0.61 90 1007.0
20260505233221 10 346 0.0 4.8 0.10 0.61 0.61 90 1007.7
20260505231712 10 290 0.0 0.0 0.10 0.56 0.56 90 1007.6
20260505230235 10 288 0.0 4.8 0.13 0.56 0.56 90 1008.0
20260505224714 10 288 0.0 1.6 0.10 0.61 0.51 89 1007.3
20260505223211 10 288 0.0 3.2 0.15 0.61 0.51 89 1007.5
20260505221723 10 290 0.0 3.2 0.13 0.56 0.46 89 1007.5
20260505220224 10 289 0.0 3.2 0.13 0.53 0.43 89 1007.5
20260505214732 10 289 0.0 4.8 0.15 0.51 0.41 89 1007.3
20260505213223 10 289 1.6 4.8 0.15 0.46 0.36 88 1007.1
20260505211736 11 289 0.0 4.8 0.18 0.43 0.33 88 1007.3
20260505210237 11 322 3.2 8.0 0.20 0.41 0.30 88 1006.9
20260505204744 12 291 4.8 6.4 0.20 0.36 0.25 88 1006.7
20260505203214 13 286 3.2 8.0 0.18 0.30 0.20 88 1006.6
20260505201725 13 288 0.0 3.2 0.15 0.25 0.15 87 1006.6
20260505200226 13 288 0.0 3.2 0.10 0.20 0.10 86 1006.6
20260505194730 13 288 0.0 3.2 0.05 0.15 0.05 85 1006.8
20260505193221 13 288 3.2 6.4 0.03 0.13 0.03 83 1006.7
20260505191732 14 276 3.2 8.0 0.00 0.10 0.00 80 1006.8
20260505190234 15 294 6.4 12.9 0.00 0.10 0.00 77 1006.7
20260505184720 16 294 4.8 14.5 0.00 0.10 0.00 73 1006.6
20260505183234 18 300 9.7 19.3 0.00 0.10 0.00 68 1006.8
20260505181724 18 248 4.8 12.9 0.00 0.10 0.00 69 1006.5
20260505180227 18 265 3.2 11.3 0.00 0.10 0.00 70 1006.4
20260505174734 17 257 3.2 14.5 0.00 0.10 0.00 72 1006.4
20260505173225 17 284 4.8 11.3 0.00 0.10 0.00 71 1006.2
20260505171715 17 278 3.2 11.3 0.00 0.10 0.00 72 1006.2
20260505170237 17 277 3.2 9.7 0.00 0.10 0.00 71 1006.2
20260505164721 17 252 3.2 12.9 0.00 0.10 0.00 70 1006.2
20260505163212 18 267 3.2 16.1 0.00 0.10 0.00 66 1006.3
20260505161724 20 244 8.0 14.5 0.00 0.10 0.00 61 1006.0
20260505160253 21 249 4.8 16.1 0.00 0.10 0.00 60 1005.9